Location: Champs
(48.8539°N, 2.6040°E)
Time: 06:40:29
(UTC+00:00)

Cosmos 1953 - Pass Details

Date: 07 June 2022
Orbit: 533 x 555 km, 82.5° (Epoch: 03 July)

Event Time Altitude Azimuth Distance (km) Brightness Sun altitude
Rises 22:25:04 0° 353° (N) 2,712 7.5 -15.9°
Reaches altitude 10° 22:27:17 10° 358° (N) 1,811 6.1 -16.1°
Maximum altitude 22:31:11 55° 77° (ENE) 649 2.6 -16.3°
Enters shadow 22:32:45 32° 140° (SE) 935 3.0 -16.4°
